Home > Weather > Esslingen > Past weeks

Flag for Germany Past Weather in Esslingen, Baden-Württemberg, Germany — Yesterday and Last 2 Weeks

Now
88 °F

Passing clouds.


Feels Like: 88 °F
Forecast: 63 / 90 °F
Wind: 8 mph from East

Location: Stuttgart-Echterdingen

Current Time: Aug 25, 2016 at 5:23:07 PM

Latest Report: Aug 25, 2016 at 4:50 PM


Visibility: N/A

Pressure: 30.04 "Hg

Humidity: 40%

Dew Point: 61 °F

Location of EsslingenLocation

Past Weather in Esslingen — Graph

°F

Esslingen Temperature Yesterday

Maximum temperature yesterday: 84 °F (at 2:50 PM)
Minimum temperature yesterday: 57 °F (at 5:20 AM)
Average temperature yesterday: 71 °F

High & Low Weather Summary for the Past Weeks

 TemperatureHumidityPressure
High88 °F (Aug 25, 3:50 PM)100% (Aug 13, 12:20 AM)30.42 "Hg (Aug 13, 12:20 AM)
Low45 °F (Aug 11, 5:20 AM)37% (Aug 15, 4:20 PM)29.83 "Hg (Aug 18, 5:20 AM)
Average66 °F70%30.13 "Hg
* Reported Aug 10 4:20 PM — Aug 25 4:20 PM, Esslingen, Weather by CustomWeather, © 2016

Note: Actual official high and low records may vary slightly from our data, if they occured in-between our weather recording intervals... More about our weather records

Advertising

Esslingen Weather History for the Previous 24 Hours

Scroll right to see more
 ConditionsComfort  
Time TempWeatherWind HumidityBarometerVisibility
4:20 PM
Thu, Aug 25
88 °FPassing clouds.8 mph40%30.07 "HgN/A
3:50 PM88 °FPassing clouds.7 mph38%30.07 "HgN/A
3:20 PM86 °FPassing clouds.6 mph43%30.07 "HgN/A
2:50 PM86 °FPassing clouds.7 mph43%30.07 "HgN/A
2:20 PM84 °FPassing clouds.6 mph45%30.07 "HgN/A
1:50 PM84 °FPassing clouds.6 mph45%30.07 "HgN/A
1:20 PM82 °FSunny.5 mph51%30.09 "Hg10 mi
12:50 PM81 °FPassing clouds.5 mph51%30.09 "HgN/A
12:20 PM79 °FSunny.3 mph54%30.09 "Hg10 mi
11:50 AM77 °FSunny.3 mph57%30.12 "Hg10 mi
11:20 AM75 °FSunny.3 mph61%30.12 "Hg10 mi
10:50 AM75 °FPassing clouds.5 mph61%30.12 "HgN/A
10:20 AM73 °FPassing clouds.3 mph61%30.12 "HgN/A
9:50 AM72 °FPassing clouds.3 mph65%30.12 "HgN/A
9:20 AM70 °FSunny.2 mph69%30.12 "Hg10 mi
8:50 AM68 °FSunny.2 mph73%30.12 "Hg10 mi
8:20 AM64 °FPassing clouds.3 mph68%30.12 "HgN/A
7:50 AM63 °FSunny.2 mph83%30.12 "Hg10 mi
7:20 AM59 °FClear.1 mph88%30.12 "Hg10 mi
6:50 AM59 °FClear.2 mph82%30.12 "Hg10 mi
6:20 AM59 °FClear.1 mph82%30.12 "Hg10 mi
5:50 AM59 °FClear.2 mph82%30.12 "Hg10 mi
5:20 AM57 °FClear.3 mph88%30.09 "Hg10 mi
4:50 AM57 °FClear.3 mph88%30.12 "Hg10 mi
4:20 AM59 °FClear.5 mph82%30.12 "Hg10 mi
3:50 AM59 °FClear.5 mph82%30.12 "Hg10 mi
3:20 AM59 °FClear.5 mph88%30.12 "Hg10 mi
2:50 AM59 °FClear.5 mph82%30.15 "Hg10 mi
2:20 AM63 °FPassing clouds.3 mph77%30.15 "HgN/A
1:50 AM63 °FClear.3 mph73%30.15 "Hg10 mi
1:20 AM64 °FClear.2 mph78%30.15 "Hg10 mi
12:50 AM66 °FClear.1 mph73%30.15 "Hg10 mi
12:20 AM66 °FPassing clouds.3 mph73%30.15 "HgN/A
11:50 PM
Wed, Aug 24
66 °FClear.1 mph73%30.15 "Hg10 mi
11:20 PM66 °FClear.1 mph73%30.18 "Hg10 mi
10:50 PM68 °FClear.2 mph69%30.18 "Hg10 mi
10:20 PM68 °FClear.5 mph69%30.18 "Hg10 mi
9:50 PM70 °FClear.3 mph69%30.18 "Hg10 mi
9:20 PM72 °FClear.5 mph65%30.18 "Hg10 mi
8:50 PM73 °FSunny.6 mph50%30.18 "Hg10 mi
8:20 PM75 °FSunny.6 mph54%30.18 "Hg10 mi
7:50 PM79 °FSunny.7 mph51%30.15 "Hg10 mi
7:20 PM81 °FSunny.9 mph45%30.15 "Hg10 mi
6:50 PM82 °FSunny.9 mph42%30.15 "Hg10 mi
6:20 PM84 °FPassing clouds.10 mph40%30.15 "HgN/A
5:50 PM84 °FPassing clouds.9 mph40%30.18 "HgN/A
5:20 PM84 °FPassing clouds.10 mph40%30.18 "HgN/A
Weather by CustomWeather, © 2016

See weather overviewHow to use our weather pages